Regional Weather Roundup
Issued by NWS

Home | Current Version | Previous Version | Graphics & Text | Print | Product List | Glossary On
Versions: 1 2 3 4 5 6 7 8 9 10 11 12 13 14 15 16 17 18 19 20 21 22 23 24 25 26 27 28 29 30 31 32 33 34 35 36 37 38 39 40 41 42 43 44 45 46 47 48 49 50
000
ASUS43 KIND 202059
RWRIN

WEATHER ROUNDUP FOR INDIANA
NATIONAL WEATHER SERVICE INDIANAPOLIS IN
500 PM EDT FRI APR 20 2018

NOTE: "FAIR" INDICATES FEW OR NO CLOUDS BELOW 12,000 FEET WITH NO
SIGNIFICANT WEATHER AND/OR OBSTRUCTIONS TO VISIBILITY.

* - STATION DOES NOT REPORT WEATHER SUCH AS PRECIPITATION OR FOG.

+ - STATION NOT QUALITY CONTROLLED BY THE NATIONAL WEATHER SERVICE.
    USE DATA WITH CAUTION...ESPECIALLY DEWPOINT AND RELATIVE
    HUMIDITY OBSERVATIONS.

INZ001>003-010>013-019-020-202200-
NORTHWEST INDIANA

CITY           SKY/WX    TMP DP  RH WIND       PRES   REMARKS
GARY /AIRPORT/ MOSUNNY   55   7  14 NE10      30.49S
KNOX *+        FAIR      59  21  23 NW6       30.44F
MONTICELLO +   FAIR      60  11  14 NE5       30.43F
RENSSELAER +   FAIR      61 -27   2 NW7       30.45R

$$

LMZ046-743>745-202200-
SOUTHERN LAKE MICHIGAN

STATION/POSITION TIME  TEMP    WIND        PRES    WAVE
                       AIR SEA DIR/SP/G            HT
                 (UTC) (F)     (DEG/KT/KT) (MB)    (FT)
BURNS HARBOR     2040   44      50/  6/  7 1032.8S
MICHIGAN CITY    2030   40      10/  6/  6   N/A

$$

INZ004-005-014>016-021>024-202200-
NORTH CENTRAL INDIANA

CITY           SKY/WX    TMP DP  RH WIND       PRES   REMARKS
ELKHART        FAIR      61  18  18 NE6       30.43F
GOSHEN         FAIR      57  21  24 CALM      30.43F
ROCHESTER +    FAIR      61  19  20 N7        30.44F
SOUTH BEND     FAIR      57  21  24 N9        30.46F
WARSAW +       FAIR      55  23  28 NE8       30.44F

$$

INZ006>009-017-018-025>027-202200-
NORTHEAST INDIANA

CITY           SKY/WX    TMP DP  RH WIND       PRES   REMARKS
ANGOLA *+      FAIR      57  18  21 CALM      30.43S
FORT WAYNE     FAIR      59  19  21 CALM      30.44F

$$

INZ028-029-035-036-043>045-051>053-202200-
WEST CENTRAL INDIANA

CITY           SKY/WX    TMP DP  RH WIND       PRES   REMARKS
GREENCASTLE +  FAIR      59  23  25 NE3       30.42F
LAFAYETTE      FAIR      59  20  22 NE12      30.43F
TERRE HAUTE    FAIR      62  23  22 E10       30.42F

$$

INZ030>032-037>040-046>048-054>057-064-065-202200-
CENTRAL INDIANA

CITY           SKY/WX    TMP DP  RH WIND       PRES   REMARKS
COLUMBUS       SUNNY     61 N/A N/A NE7       30.42F
INDIANAPOLIS   FAIR      59  19  21 NE9       30.42F
-EAGLE CREEK   FAIR      60  24  25 VRB6      30.41F
KOKOMO +       FAIR      58  23  26 VRB3      30.43F
MT COMFORT *+  FAIR      59  30  33 E6        30.43F
SHELBYVILLE    FAIR      61  21  21 CALM      30.41F
ZIONSVILLE +   FAIR      57  23  26 E6        30.43F

$$

INZ033-034-041-042-049-050-058-059-202200-
EAST CENTRAL INDIANA

CITY           SKY/WX    TMP DP  RH WIND       PRES   REMARKS
MUNCIE         FAIR      59  21  23 NE9       30.43F
RICHMOND +     FAIR      55  23  28 NE6       30.43F

$$

INZ060-061-067>069-081>083-085>088-202200-
SOUTHWEST INDIANA

CITY           SKY/WX    TMP DP  RH WIND       PRES   REMARKS
EVANSVILLE     FAIR      64  21  19 NE7       30.39F
HUNTINGBURG +  FAIR      63  25  23 NE13      30.38F

$$

INZ062-063-066-070>080-084-089>092-202200-
SOUTH CENTRAL AND SOUTHEAST INDIANA

CITY           SKY/WX    TMP DP  RH WIND       PRES   REMARKS
BLOOMINGTON    FAIR      62  20  19 VRB7      30.40F
FRENCH LICK *+ FAIR      61   9  12 NE9       30.39F
SEYMOUR +      FAIR      63  30  29 CALM      30.40

$$





USA.gov is the U.S. government's official web portal to all federal, state and local government web resources and services.